Location: Unspecified
(0.0000°N, 0.0000°E)
Time: 13:16:04
(UTC+00:00)

Courier 1B - All Passes

Search period start: 01 August 2021 00:00
Search period end: 11 August 2021 00:00
Orbit: 962 x 1209 km, 28.3° (Epoch: 01 August)

Date Brightness Start Highest point End Pass type
(mag) Time Alt. Az. Time Alt. Az. Time Alt. Az.
01 Aug - 01:21:12 10° NNW 01:27:15 31° NNE 01:33:01 10° E night (unlit)
01 Aug - 03:14:41 10° WNW 03:21:27 76° SSW 03:27:57 10° SE visible
01 Aug - 05:10:57 10° WSW 05:15:39 20° SSW 05:20:20 10° SSE visible
01 Aug - 12:53:17 10° SSW 12:59:20 28° SSE 13:05:38 10° E daylight
01 Aug - 14:46:16 10° WSW 14:53:46 90° NNW 15:01:36 10° ENE daylight
01 Aug - 16:41:52 10° W 16:48:22 29° NNW 16:55:01 10° NNE daylight
01 Aug - 18:43:04 10° NNW 18:43:57 10° NNW 18:44:50 10° N visible
02 Aug - 00:27:47 10° NNW 00:33:15 23° NNE 00:38:30 10° ENE night (unlit)
02 Aug - 02:20:45 10° NW 02:27:40 78° NNE 02:34:16 10° ESE visible
02 Aug - 04:16:10 10° W 04:21:47 29° SSW 04:27:16 10° SSE visible
02 Aug - 12:00:15 10° SSW 12:05:18 20° SSE 12:10:31 10° ESE daylight
02 Aug - 13:52:33 10° SW 13:59:48 68° SSE 14:07:27 10° ENE daylight
02 Aug - 15:47:18 10° W 15:54:15 39° NNW 16:01:27 10° NE daylight
02 Aug - 17:45:57 10° NW 17:49:32 14° NNW 17:53:07 10° N daylight
02 Aug - 23:34:30 10° NNW 23:39:09 18° NNE 23:43:38 10° ENE night (unlit)
03 Aug - 01:26:56 10° NW 01:33:52 56° NNE 01:40:24 10° ESE night (unlit)
03 Aug - 03:21:38 10° W 03:27:57 40° SSW 03:34:03 10° SE visible
03 Aug - 05:20:37 10° SW 05:22:34 11° SSW 05:24:31 10° S visible
03 Aug - 11:07:35 10° S 11:11:13 15° SSE 11:14:55 10° SE daylight
03 Aug - 12:59:01 10° SW 13:05:51 49° SSE 13:13:06 10° ENE daylight
03 Aug - 14:53:02 10° WSW 15:00:13 52° NNW 15:07:44 10° NE daylight
03 Aug - 16:50:19 10° WNW 16:55:12 18° NNW 17:00:09 10° NNE daylight
03 Aug - 22:41:27 10° N 22:44:56 14° NNE 22:48:19 10° NE visible
04 Aug - 00:33:13 10° NW 00:39:58 41° NNE 00:46:20 10° E night (unlit)
04 Aug - 02:27:19 10° WNW 02:34:09 58° SSW 02:40:39 10° SE visible
04 Aug - 04:24:37 10° WSW 04:28:32 16° SSW 04:32:23 10° SSE visible
04 Aug - 10:16:33 10° SSE 10:17:03 10° SSE 10:17:34 10° SSE daylight
04 Aug - 12:05:40 10° SW 12:11:56 35° SSE 12:18:32 10° E daylight
04 Aug - 13:59:01 10° WSW 14:06:14 71° NNW 14:13:52 10° NE daylight
04 Aug - 15:55:12 10° WNW 16:00:57 23° NNW 16:06:52 10° NNE daylight
04 Aug - 21:49:11 10° N 21:50:35 11° NNE 21:51:57 10° NNE visible
04 Aug - 23:39:37 10° NNW 23:45:59 30° NNE 23:52:02 10° E night (unlit)
05 Aug - 01:33:10 10° WNW 01:40:21 81° SSW 01:47:06 10° ESE night (unlit)
05 Aug - 03:29:24 10° WSW 03:34:34 23° SSW 03:39:35 10° SSE visible
05 Aug - 11:12:32 10° SSW 11:18:00 25° SSE 11:23:42 10° E daylight
05 Aug - 13:05:12 10° WSW 13:12:18 85° SSE 13:19:51 10° ENE daylight
05 Aug - 15:00:29 10° W 15:06:48 30° NNW 15:13:24 10° NNE daylight
05 Aug - 17:00:43 10° NNW 17:02:19 11° NNW 17:03:56 10° N daylight
05 Aug - 22:46:08 10° NNW 22:51:54 23° NNE 22:57:26 10° ENE visible
06 Aug - 00:39:09 10° NW 00:46:30 74° NNE 00:53:23 10° ESE night (unlit)
06 Aug - 02:34:34 10° W 02:40:41 32° SSW 02:46:31 10° SSE night (unlit)
06 Aug - 10:19:39 10° SSW 10:24:01 18° SSE 10:28:31 10° ESE daylight
06 Aug - 12:11:36 10° SW 12:18:25 62° SSE 12:25:40 10° ENE daylight
06 Aug - 14:06:05 10° W 14:12:44 40° NNW 14:19:46 10° NE daylight
06 Aug - 16:04:18 10° NW 16:07:56 14° NNW 16:11:36 10° N daylight
06 Aug - 21:52:49 10° NNW 21:57:43 18° NNE 22:02:28 10° ENE visible
06 Aug - 23:45:18 10° NW 23:52:36 54° NNE 23:59:28 10° ESE night (unlit)
07 Aug - 01:40:00 10° W 01:46:49 45° SSW 01:53:16 10° SE night (unlit)
07 Aug - 03:38:32 10° SW 03:41:25 13° SSW 03:44:14 10° S visible
07 Aug - 09:27:16 10° S 09:29:58 13° SSE 09:32:42 10° SE daylight
07 Aug - 11:18:10 10° SW 11:24:34 44° SSE 11:31:19 10° E daylight
07 Aug - 13:11:57 10° WSW 13:18:46 54° NNW 13:26:02 10° NE daylight
07 Aug - 15:08:53 10° WNW 15:13:38 18° NNW 15:18:31 10° NNE daylight
07 Aug - 20:59:44 10° N 21:03:25 14° NNE 21:07:02 10° NE visible
07 Aug - 22:51:33 10° NW 22:58:37 40° NNE 23:05:18 10° E night (unlit)
08 Aug - 00:45:38 10° WNW 00:52:57 63° SSW 00:59:49 10° SE night (unlit)
08 Aug - 02:42:46 10° WSW 02:47:22 18° SSW 02:51:49 10° SSE night (unlit)
08 Aug - 10:24:56 10° SSW 10:30:43 31° SSE 10:36:45 10° E daylight
08 Aug - 12:18:02 10° WSW 12:24:52 75° NNW 12:32:10 10° NE daylight
08 Aug - 14:13:57 10° WNW 14:19:27 23° NNW 14:25:12 10° NNE daylight
08 Aug - 20:07:27 10° N 20:09:00 11° NNE 20:10:32 10° NNE visible
08 Aug - 21:57:57 10° NNW 22:04:32 30° NNE 22:10:53 10° E visible
08 Aug - 23:51:28 10° WNW 23:59:04 86° SSW 00:06:12 10° ESE night (unlit)
09 Aug - 01:47:36 10° W 01:53:23 25° SSW 01:58:54 10° SSE night (unlit)
09 Aug - 09:31:51 10° SSW 09:36:49 22° SSE 09:41:54 10° ESE daylight
09 Aug - 11:24:19 10° SW 11:31:02 80° SSE 11:38:10 10° ENE daylight
09 Aug - 13:19:22 10° W 13:25:23 31° NNW 13:31:43 10° NNE daylight
09 Aug - 15:19:24 10° NNW 15:20:46 10° NNW 15:22:08 10° N daylight
09 Aug - 21:04:28 10° NNW 21:10:23 23° NNE 21:16:08 10° ENE visible
09 Aug - 22:57:27 10° NW 23:05:08 70° NNE 23:12:23 10° ESE night (unlit)
10 Aug - 00:52:46 10° W 00:59:25 35° SSW 01:05:46 10° SE night (unlit)
10 Aug - 02:53:16 10° SSW 02:54:19 10° SSW 02:55:21 10° SSW night (unlit)
10 Aug - 08:39:04 10° S 08:42:52 16° SSE 08:46:42 10° ESE daylight
10 Aug - 10:30:47 10° SW 10:37:14 57° SSE 10:44:01 10° ENE daylight
10 Aug - 12:25:04 10° W 12:31:24 41° NNW 12:38:07 10° NE daylight
10 Aug - 14:23:03 10° NW 14:26:25 14° NNW 14:29:53 10° N daylight
10 Aug - 20:11:12 10° NNW 20:16:08 18° NNE 20:21:00 10° ENE visible
10 Aug - 22:03:36 10° NW 22:11:08 52° NNE 22:18:21 10° ESE visible
